Tracking 29892 objects as of 21-Nov-2024
HD Live streaming from Space Station
objects crossing your sky now

STARLINK-30838

Track STARLINK-30838 now!
10-day predictions
STARLINK-30838 is classified as:


NORAD ID: 58211
Int'l Code: 2023-170F
Perigee: 565.5 km
Apogee: 567.0 km
Inclination: 43.0 °
Period: 95.8 minutes
Semi major axis: 6937 km
RCS: Unknown
Launch date: November 3, 2023
Source: United States (US)
Launch site: AIR FORCE EASTERN TEST RANGE (AFETR)
Your satellite tracking list
Your tracking list is empty




NASA's NSSDC Master Catalog

Two Line Element Set (TLE):
1 58211U 23170F   24326.13178074 -.00000028  00000-0  12991-4 0  9995
2 58211  43.0021 249.1433 0001091 271.7831  88.2887 15.02537253 59069
Source of the keplerian elements: AFSPC